Weather in Cankaya

Turkey     39°53′28″N   32°51′39″E
temp.,
°C
wind,
m/s
gust,
m/s
humid.,
%
clouds,
%
prec.,
mm/h
press.,
hPa
HPBL,
m
13 august, sat
sat1300:00+23nne46460 0.0 1010172
03:00+21ne23570 0.0 100960
06:00+19nne22670 0.0 101036
09:00+24ne23461 0.0 1009645
12:00+29ne01301 0.0 10071980
15:00+31wnw222466 0.0 10053124
18:00+31nnw43237 0.0 10032180
21:00+27nne68377 0.0 1005493
14 august, sun
sun1400:00+22nw585699 0.1 1008503
03:00+22ne015335 0.3 100693
06:00+21nw12558 0.0 1006101
09:00+24nnw11434 0.0 1006553
12:00+29ssw11302 0.0 10051510
15:00+32wnw24246 0.0 10022856
18:00+30sw542785 0.0 10021937
21:00+26ne223739 0.0 100237
15 august, mon
mon1500:00+25nne48405 0.0 1002212
03:00+23nne334835 0.0 100361
06:00+21ne22515 0.0 100325
09:00+25ne114045 0.3 1004393
12:00+29ssw12290 0.1 10041551
15:00+32w682527 0.1 10023262
18:00+30w1010304 0.0 10031113
21:00+25nw23420 0.0 1006103
16 august, tue
tue1600:00+21nnw23510 0.0 100996
03:00+19nw11560 0.0 101012
06:00+18wnw11610 0.0 101111
09:00+22w22480 0.0 1011521
12:00+27w44300 0.0 10101617
15:00+30w55220 0.0 10092061
18:00+29wnw54230 0.0 10091973
21:00+25nw33310 0.0 100933
17 august, wed
wed1700:00+22n22530 0.0 101036
03:00+20n22660 0.0 101023
06:00+19nne22710 0.0 101014
09:00+23nnw11527 0.0 1010515
12:00+28w223428 0.0 10081443
15:00+31w55241 0.0 10062659
18:00+30w54220 0.0 10061951
21:00+25n59410 0.0 1008456